Weather History for Roswell, NM

Change the Weather History Date:

Monday, August 12, 2013

  Actual Average Record
Temperature  
Mean Temperature 81 °F 79 °F  
Max Temperature 92 °F 92 °F 105 °F (2012)
Min Temperature 69 °F 66 °F 57 °F (1898)
Degree Days  
Heating Degree Days 0 0  
Month to date heating degree days 0 0  
Since 1 June heating degree days 0 1  
Since 1 July heating degree days 0 0  
Cooling Degree Days 16 14  
Month to date cooling degree days 218 176  
Year to date cooling degree days 1558 1274  
Since 1 June cooling degree days 1235 1049  
Growing Degree Days 30 (Base 50)    
Moisture  
Dew Point 63 °F    
Average Humidity 59    
Maximum Humidity 84    
Minimum Humidity 34    
Precipitation  
Precipitation 0.00 in 0.07 in 1.01 in (1941)
Month to date precipitation 0.57 0.79  
Year to date precipitation 4.41 7.75  
Sea Level Pressure  
Sea Level Pressure 29.92 in    
Wind  
Wind Speed 4 mph (NW)    
Max Wind Speed 13 mph    
Max Gust Speed 16 mph    
Visibility 10 miles    
Events      
T = Trace of Precipitation, MM = Missing Value Source: NWS Daily Summary

Daily Weather History Graph

Daily Weather History Graph

Search for Another Location

Airport:

Trip Planner

Search our weather history database for the weather conditions in past years. The results will help you decide how hot, cold, wet, or windy it might be!

Date:

Astronomy

Aug. 12, 2013 Rise Set
Actual Time 6:18 AM MDT 7:46 PM MDT
Civil Twilight 5:52 AM MDT 8:13 PM MDT
Nautical Twilight 5:20 AM MDT 8:44 PM MDT
Astronomical Twilight 4:47 AM MDT 9:17 PM MDT
Moon 11:51 AM MDT (8/12) 11:03 PM MDT (8/12)
Length of Visible Light 14h 20m
Length of Day
13h 27m
Waxing Crescent, 32% of the Moon is Illuminated
Aug 12
Waxing Crescent
Aug 14
First Quarter
Aug 20
Full
Aug 28
Last Quarter
Sep 5
New

Hourly Weather History & Observations

Time (MDT) Temp. Heat Index Dew Point Humidity Pressure Visibility Wind Dir Wind Speed Gust Speed Precip Events Conditions
12:51 AM 75.0 °F - 66.9 °F 76% 29.95 in 10.0 mi NW 3.5 mph - N/A   Clear
1:51 AM 73.0 °F - 66.9 °F 81% 29.95 in 10.0 mi NW 3.5 mph - N/A   Mostly Cloudy
2:51 AM 73.0 °F - 66.0 °F 79% 29.94 in 10.0 mi Calm Calm - N/A   Clear
3:51 AM 71.1 °F - 66.0 °F 84% 29.94 in 10.0 mi Calm Calm - N/A   Clear
4:51 AM 71.1 °F - 64.9 °F 81% 29.93 in 10.0 mi Calm Calm - N/A   Clear
5:51 AM 70.0 °F - 64.9 °F 84% 29.93 in 10.0 mi Calm Calm - N/A   Clear
6:51 AM 70.0 °F - 64.9 °F 84% 29.95 in 10.0 mi NNW 3.5 mph - N/A   Clear
7:51 AM 73.0 °F - 66.0 °F 79% 29.96 in 10.0 mi Calm Calm - N/A   Clear
8:51 AM 75.9 °F - 64.9 °F 69% 29.98 in 10.0 mi South 3.5 mph - N/A   Clear
9:51 AM 79.0 °F - 64.0 °F 60% 29.98 in 10.0 mi South 5.8 mph - N/A   Clear
10:51 AM 82.0 °F 83.0 °F 62.1 °F 51% 29.98 in 10.0 mi North - - N/A   Clear
11:51 AM 84.9 °F 85.0 °F 61.0 °F 44% 29.96 in 10.0 mi North - - N/A   Clear
12:51 PM 88.0 °F 87.9 °F 61.0 °F 40% 29.94 in 10.0 mi Variable 3.5 mph - N/A   Clear
1:51 PM 89.1 °F 88.0 °F 57.9 °F 35% 29.93 in 10.0 mi Variable 3.5 mph - N/A   Scattered Clouds
2:51 PM 90.0 °F 89.7 °F 60.1 °F 37% 29.91 in 10.0 mi North 6.9 mph - N/A   Clear
3:51 PM 89.1 °F 88.0 °F 57.9 °F 35% 29.88 in 10.0 mi Variable 3.5 mph - N/A   Clear
4:51 PM 91.0 °F 90.2 °F 59.0 °F 34% 29.87 in 10.0 mi NW 9.2 mph - N/A   Clear
5:51 PM 90.0 °F 89.7 °F 60.1 °F 37% 29.85 in 10.0 mi WNW 5.8 mph - N/A   Clear
6:51 PM 88.0 °F 87.1 °F 59.0 °F 37% 29.85 in 10.0 mi North 4.6 mph - N/A   Clear
7:51 PM 84.9 °F 84.4 °F 59.0 °F 41% 29.86 in 10.0 mi WNW 4.6 mph - N/A   Clear
8:51 PM 82.9 °F 83.3 °F 61.0 °F 47% 29.88 in 10.0 mi NW 5.8 mph - N/A   Clear
9:51 PM 81.0 °F 82.2 °F 63.0 °F 54% 29.89 in 10.0 mi NNW 3.5 mph - N/A   Clear
10:51 PM 79.0 °F - 64.0 °F 60% 29.88 in 10.0 mi West 4.6 mph - N/A   Clear
11:51 PM 77.0 °F - 64.9 °F 66% 29.87 in 10.0 mi West 6.9 mph - N/A   Clear